| time (UTC) | temp F | wind direction | speed MPH | gust MPH | rain 1hr in | rain 24hr in | rain mn in | humidity % | barometer mb |
| 20260508190520 | 59 | 180 | 1.0 | 5.0 | 0.00 | 0.06 | 0.06 | 48 | 1010.8 |
| 20260508185520 | 59 | 225 | 3.0 | 11.0 | 0.00 | 0.06 | 0.06 | 49 | 1010.9 |
| 20260508184519 | 58 | 225 | 1.0 | 4.0 | 0.00 | 0.06 | 0.06 | 48 | 1010.8 |
| 20260508183520 | 59 | 248 | 2.0 | 5.0 | 0.00 | 0.06 | 0.06 | 48 | 1010.9 |
| 20260508182520 | 60 | 68 | 1.0 | 5.0 | 0.00 | 0.06 | 0.06 | 54 | 1011.0 |
| 20260508181521 | 58 | 180 | 2.0 | 6.0 | 0.00 | 0.06 | 0.06 | 53 | 1011.1 |
| 20260508180520 | 57 | 180 | 2.0 | 6.0 | 0.00 | 0.06 | 0.06 | 52 | 1011.0 |
| 20260508175520 | 56 | 203 | 3.0 | 10.0 | 0.00 | 0.06 | 0.06 | 55 | 1011.2 |
| 20260508174520 | 56 | 158 | 2.0 | 5.0 | 0.00 | 0.06 | 0.06 | 53 | 1011.3 |
| 20260508173520 | 57 | 158 | 1.0 | 8.0 | 0.00 | 0.06 | 0.06 | 62 | 1011.5 |
| 20260508172540 | 56 | 248 | 1.0 | 4.0 | 0.00 | 0.06 | 0.06 | 57 | 1011.5 |
| 20260508171519 | 56 | 203 | 1.0 | 3.0 | 0.00 | 0.06 | 0.06 | 60 | 1011.6 |
| 20260508170520 | 56 | 180 | 2.0 | 6.0 | 0.00 | 0.06 | 0.06 | 58 | 1011.7 |
| 20260508165520 | 55 | 180 | 2.0 | 6.0 | 0.00 | 0.06 | 0.06 | 56 | 1011.8 |
| 20260508164520 | 55 | 180 | 2.0 | 7.0 | 0.00 | 0.06 | 0.06 | 62 | 1011.9 |
| 20260508163519 | 56 | 180 | 1.0 | 6.0 | 0.00 | 0.06 | 0.06 | 60 | 1012.1 |
| 20260508162520 | 54 | 225 | 1.0 | 5.0 | 0.00 | 0.06 | 0.06 | 62 | 1012.2 |
| 20260508161520 | 53 | 293 | 1.0 | 8.0 | 0.00 | 0.06 | 0.06 | 66 | 1012.2 |
| 20260508160520 | 53 | 225 | 1.0 | 5.0 | 0.00 | 0.06 | 0.06 | 65 | 1012.2 |
| 20260508155520 | 52 | 0.0 | 3.0 | 0.00 | 0.06 | 0.06 | 69 | 1012.4 | |
| 20260508154520 | 52 | 225 | 2.0 | 5.0 | 0.00 | 0.06 | 0.06 | 67 | 1012.2 |
| 20260508153520 | 52 | 203 | 1.0 | 5.0 | 0.00 | 0.06 | 0.06 | 72 | 1012.2 |
| 20260508152520 | 51 | 158 | 2.0 | 7.0 | 0.00 | 0.06 | 0.06 | 69 | 1012.1 |
| 20260508151520 | 51 | 158 | 1.0 | 4.0 | 0.00 | 0.06 | 0.06 | 73 | 1012.1 |
| 20260508150520 | 49 | 0.0 | 3.0 | 0.00 | 0.06 | 0.06 | 78 | 1012.2 | |
| 20260508145520 | 46 | 158 | 2.0 | 7.0 | 0.00 | 0.06 | 0.06 | 84 | 1012.1 |
| 20260508144519 | 46 | 0.0 | 3.0 | 0.00 | 0.06 | 0.06 | 88 | 1012.0 | |
| 20260508143520 | 45 | 248 | 2.0 | 8.0 | 0.00 | 0.06 | 0.06 | 90 | 1012.1 |
| 20260508142519 | 44 | 135 | 3.0 | 8.0 | 0.00 | 0.06 | 0.06 | 90 | 1012.0 |
| 20260508141520 | 44 | 225 | 1.0 | 4.0 | 0.00 | 0.06 | 0.06 | 92 | 1012.1 |
| 20260508140520 | 44 | 0.0 | 0.0 | 0.00 | 0.06 | 0.06 | 92 | 1012.2 | |
| 20260508135539 | 44 | 0.0 | 1.0 | 0.01 | 0.06 | 0.06 | 92 | 1012.3 | |
| 20260508134519 | 43 | 0.0 | 1.0 | 0.02 | 0.06 | 0.06 | 92 | 1012.3 | |
| 20260508133539 | 43 | 0.0 | 1.0 | 0.02 | 0.06 | 0.06 | 92 | 1012.3 | |
| 20260508132519 | 43 | 0.0 | 0.0 | 0.04 | 0.06 | 0.06 | 92 | 1012.3 | |
| 20260508131559 | 43 | 0.0 | 1.0 | 0.04 | 0.06 | 0.06 | 92 | 1012.3 | |
| 20260508130520 | 43 | 0.0 | 0.0 | 0.05 | 0.06 | 0.06 | 92 | 1012.3 | |
| 20260508125539 | 43 | 0.0 | 2.0 | 0.04 | 0.05 | 0.05 | 92 | 1012.2 | |
| 20260508124520 | 43 | 0.0 | 0.0 | 0.03 | 0.04 | 0.04 | 92 | 1012.3 | |
| 20260508123519 | 42 | 0.0 | 2.0 | 0.03 | 0.04 | 0.04 | 92 | 1012.1 | |
| 20260508122520 | 42 | 0.0 | 0.0 | 0.01 | 0.02 | 0.02 | 91 | 1012.1 | |
| 20260508121519 | 42 | 0.0 | 0.0 | 0.01 | 0.02 | 0.02 | 91 | 1011.9 | |
| 20260508120520 | 41 | 0.0 | 0.0 | 0.00 | 0.01 | 0.01 | 90 | 1011.7 | |
| 20260508115519 | 41 | 0.0 | 0.0 | 0.00 | 0.01 | 0.01 | 90 | 1011.4 | |
| 20260508114541 | 41 | 0.0 | 0.0 | 0.00 | 0.01 | 0.01 | 90 | 1011.4 | |
| 20260508113519 | 40 | 0.0 | 0.0 | 0.00 | 0.01 | 0.01 | 90 | 1011.3 | |
| 20260508112519 | 40 | 0.0 | 0.0 | 0.00 | 0.01 | 0.01 | 90 | 1011.2 | |
| 20260508111519 | 40 | 0.0 | 0.0 | 0.00 | 0.01 | 0.01 | 89 | 1011.1 | |
| 20260508110519 | 40 | 0.0 | 0.0 | 0.00 | 0.01 | 0.01 | 89 | 1011.0 | |
| 20260508105520 | 39 | 0.0 | 0.0 | 0.00 | 0.01 | 0.01 | 89 | 1010.8 | |
| 20260508104519 | 39 | 0.0 | 0.0 | 0.00 | 0.01 | 0.01 | 89 | 1010.9 | |
| 20260508103519 | 39 | 0.0 | 0.0 | 0.00 | 0.01 | 0.01 | 88 | 1010.8 | |
| 20260508102519 | 39 | 0.0 | 0.0 | 0.00 | 0.01 | 0.01 | 88 | 1010.8 | |
| 20260508101519 | 38 | 0.0 | 0.0 | 0.00 | 0.01 | 0.01 | 87 | 1010.8 | |
| 20260508100540 | 38 | 0.0 | 0.0 | 0.00 | 0.01 | 0.01 | 87 | 1011.0 | |
| 20260508095519 | 38 | 0.0 | 0.0 | 0.00 | 0.01 | 0.01 | 86 | 1011.1 | |
| 20260508094519 | 38 | 0.0 | 0.0 | 0.00 | 0.01 | 0.01 | 86 | 1011.1 | |
| 20260508093519 | 38 | 0.0 | 0.0 | 0.00 | 0.01 | 0.01 | 85 | 1011.2 | |
| 20260508092519 | 38 | 0.0 | 0.0 | 0.00 | 0.01 | 0.01 | 85 | 1011.2 | |
| 20260508091520 | 38 | 0.0 | 0.0 | 0.00 | 0.01 | 0.01 | 84 | 1011.3 | |
| 20260508090519 | 38 | 0.0 | 0.0 | 0.00 | 0.01 | 0.01 | 83 | 1011.3 | |
| 20260508085519 | 38 | 0.0 | 0.0 | 0.00 | 0.01 | 0.01 | 83 | 1011.2 | |
| 20260508084519 | 39 | 0.0 | 0.0 | 0.00 | 0.01 | 0.01 | 83 | 1011.2 | |
| 20260508083519 | 39 | 0.0 | 0.0 | 0.00 | 0.01 | 0.01 | 83 | 1011.1 | |
| 20260508082520 | 39 | 0.0 | 0.0 | 0.00 | 0.01 | 0.01 | 82 | 1011.1 | |
| 20260508081519 | 40 | 0.0 | 0.0 | 0.00 | 0.01 | 0.01 | 83 | 1011.0 | |
| 20260508080519 | 40 | 0.0 | 0.0 | 0.00 | 0.01 | 0.01 | 83 | 1011.0 | |
| 20260508075519 | 40 | 0.0 | 0.0 | 0.00 | 0.01 | 0.01 | 82 | 1011.1 | |
| 20260508074519 | 41 | 0.0 | 0.0 | 0.00 | 0.01 | 0.01 | 82 | 1011.1 | |
| 20260508073539 | 41 | 0.0 | 0.0 | 0.00 | 0.01 | 0.01 | 82 | 1011.0 | |
| 20260508072519 | 41 | 0.0 | 0.0 | 0.00 | 0.01 | 0.01 | 82 | 1011.0 | |
| 20260508071519 | 42 | 0.0 | 0.0 | 0.00 | 0.01 | 0.01 | 81 | 1011.1 | |
| 20260508070519 | 42 | 0.0 | 0.0 | 0.00 | 0.01 | 0.01 | 81 | 1011.2 | |
| 20260508065520 | 43 | 0.0 | 0.0 | 0.00 | 0.01 | 0.01 | 82 | 1011.1 | |
| 20260508064539 | 43 | 0.0 | 0.0 | 0.00 | 0.01 | 0.01 | 81 | 1011.1 | |
| 20260508063519 | 44 | 0.0 | 0.0 | 0.00 | 0.01 | 0.01 | 82 | 1011.1 | |
| 20260508062519 | 44 | 0.0 | 0.0 | 0.00 | 0.01 | 0.01 | 82 | 1011.2 | |
| 20260508061519 | 44 | 0.0 | 0.0 | 0.00 | 0.01 | 0.01 | 82 | 1011.3 | |
| 20260508060519 | 44 | 0.0 | 0.0 | 0.00 | 0.01 | 0.01 | 82 | 1011.5 | |
| 20260508055519 | 45 | 0.0 | 0.0 | 0.00 | 0.01 | 0.01 | 82 | 1011.4 | |
| 20260508054519 | 45 | 0.0 | 0.0 | 0.00 | 0.01 | 0.01 | 82 | 1011.4 | |
| 20260508053519 | 45 | 0.0 | 0.0 | 0.00 | 0.01 | 0.01 | 82 | 1011.5 | |
| 20260508052519 | 45 | 0.0 | 0.0 | 0.01 | 0.01 | 0.01 | 82 | 1011.5 | |
| 20260508051519 | 45 | 0.0 | 0.0 | 0.01 | 0.01 | 0.01 | 81 | 1011.5 | |
| 20260508050519 | 45 | 0.0 | 0.0 | 0.01 | 0.01 | 0.01 | 80 | 1011.4 | |
| 20260508045519 | 45 | 0.0 | 0.0 | 0.01 | 0.01 | 0.01 | 81 | 1011.4 | |
| 20260508044520 | 45 | 0.0 | 0.0 | 0.01 | 0.01 | 0.01 | 82 | 1011.3 | |
| 20260508043519 | 46 | 0.0 | 0.0 | 0.01 | 0.01 | 0.01 | 81 | 1011.4 | |
| 20260508042519 | 46 | 0.0 | 0.0 | 0.00 | 0.00 | 0.00 | 80 | 1011.4 | |
| 20260508041519 | 46 | 0.0 | 0.0 | 0.00 | 0.00 | 0.00 | 79 | 1011.3 | |
| 20260508040520 | 46 | 0.0 | 1.0 | 0.00 | 0.00 | 0.00 | 79 | 1011.3 | |
| 20260508035520 | 46 | 0.0 | 1.0 | 0.00 | 0.00 | 0.00 | 78 | 1011.3 | |
| 20260508034518 | 46 | 0.0 | 3.0 | 0.00 | 0.00 | 0.00 | 78 | 1011.3 | |
| 20260508033518 | 46 | 0.0 | 2.0 | 0.00 | 0.00 | 0.00 | 77 | 1011.2 | |
| 20260508032538 | 46 | 0.0 | 0.0 | 0.00 | 0.00 | 0.00 | 76 | 1011.1 | |
| 20260508031518 | 46 | 0.0 | 0.0 | 0.00 | 0.00 | 0.00 | 76 | 1011.1 | |
| 20260508030518 | 46 | 0.0 | 3.0 | 0.00 | 0.00 | 0.00 | 75 | 1011.1 | |
| 20260508025538 | 46 | 0.0 | 0.0 | 0.00 | 0.00 | 0.00 | 75 | 1011.1 | |
| 20260508024518 | 46 | 0.0 | 3.0 | 0.00 | 0.00 | 0.00 | 75 | 1011.2 | |
| 20260508023518 | 46 | 0.0 | 0.0 | 0.00 | 0.00 | 0.00 | 75 | 1011.0 | |
| 20260508022518 | 46 | 0.0 | 4.0 | 0.00 | 0.00 | 0.00 | 75 | 1010.9 | |
| 20260508021518 | 46 | 0.0 | 0.0 | 0.00 | 0.00 | 0.00 | 75 | 1010.9 | |
| 20260508020538 | 46 | 0.0 | 2.0 | 0.00 | 0.00 | 0.00 | 74 | 1010.6 | |
| 20260508015518 | 46 | 0.0 | 3.0 | 0.00 | 0.00 | 0.00 | 70 | 1010.6 | |
| 20260508014518 | 46 | 0.0 | 0.0 | 0.00 | 0.00 | 0.00 | 69 | 1010.5 | |
| 20260508013518 | 46 | 0.0 | 0.0 | 0.00 | 0.00 | 0.00 | 66 | 1010.4 | |
| 20260508012518 | 46 | 0.0 | 0.0 | 0.00 | 0.00 | 0.00 | 65 | 1010.3 | |
| 20260508011538 | 47 | 0.0 | 0.0 | 0.00 | 0.00 | 0.00 | 65 | 1010.3 | |
| 20260508010538 | 47 | 0.0 | 0.0 | 0.00 | 0.00 | 0.00 | 64 | 1010.1 | |
| 20260508005518 | 48 | 0.0 | 0.0 | 0.00 | 0.00 | 0.00 | 61 | 1010.0 | |
| 20260508004538 | 48 | 0.0 | 0.0 | 0.00 | 0.00 | 0.00 | 60 | 1010.1 | |
| 20260508003518 | 49 | 0.0 | 0.0 | 0.00 | 0.01 | 0.00 | 61 | 1010.0 | |
| 20260508002518 | 49 | 0.0 | 0.0 | 0.00 | 0.01 | 0.00 | 59 | 1009.8 | |
| 20260508001558 | 50 | 0.0 | 0.0 | 0.00 | 0.01 | 0.00 | 58 | 1009.9 | |
| 20260508000518 | 50 | 0.0 | 0.0 | 0.00 | 0.02 | 0.00 | 58 | 1009.8 | |
| 20260507235518 | 50 | 0.0 | 0.0 | 0.00 | 0.05 | 0.00 | 57 | 1009.7 | |
| 20260507234538 | 51 | 0.0 | 0.0 | 0.00 | 0.05 | 0.00 | 56 | 1009.6 | |
| 20260507233518 | 51 | 0.0 | 0.0 | 0.00 | 0.07 | 0.00 | 55 | 1009.7 | |
| 20260507232538 | 51 | 0.0 | 1.0 | 0.00 | 0.09 | 0.00 | 55 | 1009.6 | |
| 20260507231518 | 51 | 0.0 | 0.0 | 0.00 | 0.11 | 0.00 | 53 | 1009.6 | |
| 20260507230516 | 51 | 0.0 | 1.0 | 0.00 | 0.12 | 0.00 | 54 | 1009.6 | |
| 20260507230118 | 51 | 0.0 | 0.0 | 0.00 | 0.12 | 0.00 | 53 | 1009.6 | |
| 20260507225018 | 51 | 0.0 | 2.0 | 0.00 | 0.12 | 0.00 | 53 | 1009.7 | |
| 20260507224018 | 51 | 0.0 | 0.0 | 0.00 | 0.12 | 0.00 | 52 | 1009.6 | |
| 20260507223018 | 52 | 0.0 | 0.0 | 0.00 | 0.12 | 0.00 | 51 | 1009.6 | |
| 20260507222018 | 52 | 0.0 | 0.0 | 0.00 | 0.12 | 0.00 | 50 | 1009.7 | |
| 20260507221903 | 52 | 0.0 | 2.0 | 0.00 | 0.12 | 0.00 | 52 | 1009.6 |